Overview Statistics Trail Chart Weather Telemetry Raw packets
 

This is the latest recevied weather packets stored in our database for station/object KB9HUO. If no packets are shown the sender has not sent any weather packets the latest 10 day(s).

<< 97 98 99 100 101 102 103 >>
Time Temp. Humidity Pressure Rain* Wind** Luminosity Snow
1787929850 25° C 74% 1021.5 hPa 0 mm - 126 W/m² -
1787929545 25° C 76% 1021.4 hPa 0 mm - 104 W/m² -
1787929244 24.44° C 76% 1021.6 hPa 0 mm - 61 W/m² -
1787928943 23.89° C 78% 1021.5 hPa 0 mm - 64 W/m² -
1787928638 23.89° C 78% 1021.2 hPa 0 mm - 119 W/m² -
1787928337 23.89° C 78% 1021.3 hPa 0 mm - 58 W/m² -
1787928035 23.89° C 78% 1021.3 hPa 0 mm - 58 W/m² -
1787927734 23.33° C 80% 1021.4 hPa 0 mm - 57 W/m² -
1787927430 23.33° C 81% 1021.3 hPa 0 mm - 56 W/m² -
1787927125 23.33° C 80% 1021.3 hPa 0 mm - 56 W/m² -
1787926820 22.78° C 82% 1021.4 hPa 0 mm - 56 W/m² -
1787926520 22.78° C 83% 1021.2 hPa 0 mm - 58 W/m² -
1787926218 22.22° C 85% 1021.3 hPa 0 mm - 58 W/m² -
1787925918 21.67° C 88% 1021.6 hPa 0 mm - 60 W/m² -
1787925613 21.11° C 88% 1021.3 hPa 0 mm - 56 W/m² -
1787925308 21.11° C 90% 1021.3 hPa 0 mm - 52 W/m² -
1787925007 21.11° C 92% 1021.4 hPa 0 mm - 58 W/m² -
1787924701 20.56° C 95% 1021.3 hPa 0 mm - 68 W/m² -
1787924396 20.56° C 97% 1021.1 hPa 0 mm - 73 W/m² -
1787924091 20.56° C 97% 1021.1 hPa 0 mm - 65 W/m² -
1787923785 20° C 97% 1021.1 hPa 0 mm - 58 W/m² -
1787923480 20° C 98% 1020.9 hPa 0 mm - 51 W/m² -
1787923176 20° C 98% 1020.9 hPa 0 mm - 52 W/m² -
1787922871 20° C 98% 1021 hPa 0 mm - 49 W/m² -
1787922570 20° C 98% 1020.9 hPa 0 mm - 44 W/m² -

* Rain latest hour (hover to see other rain measurements)
** Current wind speed in m/s (hover to see current wind gust speed)